Retour au catalogue

CZ-4B R/B

ActifLEO
NORAD 48624·ROCKET BODY·🇨🇳 China

Lancé May 19, 2021 depuis Jiuquan Satellite Launch Center

Loading…

Prochains Passages (prochaines 24 heures)

TLE

FraisSource: Space-Track

Époque: Sep 14, 2026, 12:25 UTC

1 48624U 21043D   26257.51754487 -.00000068  00000-0  94536-5 0  9994
2 48624  66.0654 139.7013 0163069 327.7554  31.3642 14.21614136276277

Suivez CZ-4B R/B en temps réel avec AllMySat

Download on the App Store